| time (UTC) | temp F | wind direction | speed MPH | gust MPH | rain 1hr in | rain 24hr in | rain mn in | humidity % | barometer mb |
| 20260901161807 | 65 | 189 | 3.0 | 5.0 | 0.00 | 0.00 | 0.00 | 56 | 1016.2 |
| 20260901161309 | 64 | 183 | 3.0 | 5.0 | 0.00 | 0.00 | 0.00 | 56 | 1016.3 |
| 20260901160807 | 64 | 249 | 1.0 | 2.0 | 0.00 | 0.00 | 0.00 | 58 | 1016.4 |
| 20260901160309 | 64 | 157 | 4.0 | 4.0 | 0.00 | 0.00 | 0.00 | 58 | 1016.4 |
| 20260901155807 | 64 | 201 | 1.0 | 1.0 | 0.00 | 0.00 | 0.00 | 59 | 1016.3 |
| 20260901155308 | 63 | 187 | 1.0 | 3.0 | 0.00 | 0.00 | 0.00 | 59 | 1016.3 |
| 20260901154808 | 63 | 184 | 4.0 | 6.0 | 0.00 | 0.00 | 0.00 | 59 | 1016.2 |
| 20260901154307 | 63 | 203 | 4.0 | 6.0 | 0.00 | 0.00 | 0.00 | 59 | 1016.1 |
| 20260901153807 | 63 | 192 | 4.0 | 6.0 | 0.00 | 0.00 | 0.00 | 59 | 1016.1 |
| 20260901153308 | 63 | 241 | 2.0 | 3.0 | 0.00 | 0.00 | 0.00 | 60 | 1016.1 |
| 20260901152807 | 63 | 285 | 0.0 | 2.0 | 0.00 | 0.00 | 0.00 | 60 | 1016.1 |
| 20260901152308 | 63 | 214 | 2.0 | 3.0 | 0.00 | 0.00 | 0.00 | 60 | 1015.9 |
| 20260901151808 | 63 | 229 | 2.0 | 3.0 | 0.00 | 0.00 | 0.00 | 60 | 1015.9 |
| 20260901151307 | 63 | 224 | 2.0 | 3.0 | 0.00 | 0.00 | 0.00 | 60 | 1015.9 |
| 20260901150811 | 63 | 190 | 3.0 | 4.0 | 0.00 | 0.00 | 0.00 | 60 | 1015.9 |
| 20260901150308 | 63 | 184 | 3.0 | 4.0 | 0.00 | 0.00 | 0.00 | 61 | 1016.0 |
| 20260901145807 | 62 | 203 | 2.0 | 3.0 | 0.00 | 0.00 | 0.00 | 61 | 1015.9 |
| 20260901145308 | 62 | 221 | 1.0 | 3.0 | 0.00 | 0.00 | 0.00 | 62 | 1015.8 |
| 20260901144807 | 62 | 201 | 3.0 | 4.0 | 0.00 | 0.00 | 0.00 | 62 | 1015.7 |
| 20260901144308 | 62 | 210 | 3.0 | 4.0 | 0.00 | 0.00 | 0.00 | 62 | 1015.7 |
| 20260901143808 | 62 | 195 | 4.0 | 5.0 | 0.00 | 0.00 | 0.00 | 63 | 1015.7 |
| 20260901143308 | 62 | 202 | 2.0 | 3.0 | 0.00 | 0.00 | 0.00 | 63 | 1015.6 |
| 20260901142807 | 62 | 218 | 1.0 | 2.0 | 0.00 | 0.00 | 0.00 | 64 | 1015.5 |
| 20260901142308 | 62 | 197 | 4.0 | 6.0 | 0.00 | 0.00 | 0.00 | 64 | 1015.5 |
| 20260901141810 | 62 | 220 | 1.0 | 2.0 | 0.00 | 0.00 | 0.00 | 64 | 1015.4 |
| 20260901141308 | 62 | 212 | 4.0 | 6.0 | 0.00 | 0.00 | 0.00 | 64 | 1015.3 |
| 20260901140811 | 62 | 200 | 1.0 | 2.0 | 0.00 | 0.00 | 0.00 | 64 | 1015.3 |
| 20260901140308 | 62 | 198 | 2.0 | 4.0 | 0.00 | 0.00 | 0.00 | 64 | 1015.2 |
| 20260901135807 | 61 | 208 | 2.0 | 4.0 | 0.00 | 0.00 | 0.00 | 64 | 1015.1 |
| 20260901135308 | 61 | 206 | 2.0 | 3.0 | 0.00 | 0.00 | 0.00 | 64 | 1015.1 |
| 20260901134808 | 61 | 184 | 1.0 | 2.0 | 0.00 | 0.00 | 0.00 | 64 | 1015.0 |
| 20260901134308 | 61 | 183 | 2.0 | 4.0 | 0.00 | 0.00 | 0.00 | 64 | 1015.0 |
| 20260901133808 | 61 | 204 | 2.0 | 3.0 | 0.00 | 0.00 | 0.00 | 64 | 1015.0 |
| 20260901133307 | 61 | 171 | 4.0 | 5.0 | 0.00 | 0.00 | 0.00 | 64 | 1014.9 |
| 20260901132807 | 61 | 198 | 4.0 | 5.0 | 0.00 | 0.00 | 0.00 | 64 | 1014.9 |
| 20260901132308 | 61 | 188 | 3.0 | 4.0 | 0.00 | 0.00 | 0.00 | 64 | 1014.9 |
| 20260901131807 | 61 | 179 | 2.0 | 2.0 | 0.00 | 0.00 | 0.00 | 64 | 1014.9 |
| 20260901131307 | 61 | 191 | 4.0 | 5.0 | 0.00 | 0.00 | 0.00 | 64 | 1014.9 |
| 20260901130808 | 61 | 187 | 2.0 | 3.0 | 0.00 | 0.00 | 0.00 | 64 | 1014.8 |
| 20260901130308 | 61 | 182 | 3.0 | 5.0 | 0.00 | 0.00 | 0.00 | 64 | 1014.7 |
| 20260901125807 | 61 | 200 | 2.0 | 4.0 | 0.00 | 0.00 | 0.00 | 64 | 1014.8 |
| 20260901125309 | 61 | 193 | 2.0 | 4.0 | 0.00 | 0.00 | 0.00 | 65 | 1014.8 |
| 20260901124811 | 61 | 213 | 0.0 | 1.0 | 0.00 | 0.00 | 0.00 | 65 | 1014.8 |
| 20260901124307 | 61 | 216 | 1.0 | 2.0 | 0.00 | 0.00 | 0.00 | 65 | 1014.7 |
| 20260901123808 | 61 | 152 | 2.0 | 3.0 | 0.00 | 0.00 | 0.00 | 65 | 1014.8 |
| 20260901123309 | 61 | 192 | 1.0 | 2.0 | 0.00 | 0.00 | 0.00 | 66 | 1014.8 |
| 20260901122817 | 61 | 201 | 2.0 | 3.0 | 0.00 | 0.00 | 0.00 | 66 | 1014.7 |
| 20260901122309 | 61 | 192 | 3.0 | 5.0 | 0.00 | 0.00 | 0.00 | 66 | 1014.6 |
| 20260901121808 | 61 | 203 | 2.0 | 3.0 | 0.00 | 0.00 | 0.00 | 66 | 1014.7 |
| 20260901121311 | 61 | 197 | 4.0 | 6.0 | 0.00 | 0.00 | 0.00 | 66 | 1014.6 |
| 20260901120807 | 61 | 178 | 2.0 | 2.0 | 0.00 | 0.00 | 0.00 | 66 | 1014.6 |
| 20260901120307 | 61 | 184 | 2.0 | 5.0 | 0.00 | 0.00 | 0.00 | 66 | 1014.6 |
| 20260901115807 | 61 | 158 | 1.0 | 2.0 | 0.00 | 0.00 | 0.00 | 67 | 1014.6 |
| 20260901115309 | 61 | 196 | 2.0 | 3.0 | 0.00 | 0.00 | 0.00 | 66 | 1014.6 |
| 20260901114808 | 61 | 196 | 2.0 | 3.0 | 0.00 | 0.00 | 0.00 | 67 | 1014.6 |
| 20260901114307 | 61 | 135 | 3.0 | 4.0 | 0.00 | 0.00 | 0.00 | 67 | 1014.6 |
| 20260901113808 | 61 | 176 | 2.0 | 2.0 | 0.00 | 0.00 | 0.00 | 68 | 1014.8 |
| 20260901113307 | 61 | 242 | 0.0 | 1.0 | 0.00 | 0.00 | 0.00 | 69 | 1014.9 |
| 20260901112808 | 61 | 202 | 0.0 | 1.0 | 0.00 | 0.00 | 0.00 | 69 | 1014.9 |
| 20260901112307 | 61 | 284 | 1.0 | 2.0 | 0.00 | 0.00 | 0.00 | 69 | 1014.9 |
| 20260901111808 | 61 | 223 | 1.0 | 2.0 | 0.00 | 0.00 | 0.00 | 70 | 1014.9 |
| 20260901111307 | 61 | 282 | 2.0 | 3.0 | 0.00 | 0.00 | 0.00 | 70 | 1015.0 |
| 20260901110807 | 61 | 255 | 0.0 | 1.0 | 0.00 | 0.00 | 0.00 | 70 | 1015.0 |
| 20260901110307 | 61 | 277 | 1.0 | 2.0 | 0.00 | 0.00 | 0.00 | 70 | 1014.9 |
| 20260901105807 | 61 | 294 | 1.0 | 3.0 | 0.00 | 0.00 | 0.00 | 70 | 1015.0 |
| 20260901105307 | 61 | 258 | 0.0 | 2.0 | 0.00 | 0.00 | 0.00 | 70 | 1014.9 |
| 20260901104807 | 61 | 237 | 0.0 | 1.0 | 0.00 | 0.00 | 0.00 | 69 | 1014.8 |
| 20260901104307 | 61 | 226 | 0.0 | 2.0 | 0.00 | 0.00 | 0.00 | 69 | 1014.8 |
| 20260901103807 | 61 | 263 | 1.0 | 2.0 | 0.00 | 0.00 | 0.00 | 69 | 1014.8 |
| 20260901103307 | 61 | 291 | 0.0 | 2.0 | 0.00 | 0.00 | 0.00 | 70 | 1014.7 |
| 20260901102807 | 61 | 269 | 0.0 | 2.0 | 0.00 | 0.00 | 0.00 | 70 | 1014.7 |
| 20260901102308 | 61 | 245 | 0.0 | 1.0 | 0.00 | 0.00 | 0.00 | 70 | 1014.7 |
| 20260901101807 | 61 | 280 | 1.0 | 2.0 | 0.00 | 0.00 | 0.00 | 70 | 1014.7 |
| 20260901101307 | 61 | 269 | 1.0 | 2.0 | 0.00 | 0.00 | 0.00 | 70 | 1014.6 |
| 20260901100807 | 61 | 282 | 0.0 | 2.0 | 0.00 | 0.00 | 0.00 | 70 | 1014.6 |
| 20260901100308 | 61 | 250 | 1.0 | 2.0 | 0.00 | 0.00 | 0.00 | 70 | 1014.6 |
| 20260901095807 | 61 | 226 | 1.0 | 2.0 | 0.00 | 0.00 | 0.00 | 71 | 1014.5 |
| 20260901095308 | 61 | 240 | 1.0 | 2.0 | 0.00 | 0.00 | 0.00 | 71 | 1014.6 |
| 20260901094808 | 61 | 234 | 0.0 | 1.0 | 0.00 | 0.00 | 0.00 | 71 | 1014.6 |
| 20260901094307 | 60 | 279 | 0.0 | 1.0 | 0.00 | 0.00 | 0.00 | 71 | 1014.5 |
| 20260901093807 | 60 | 229 | 2.0 | 2.0 | 0.00 | 0.00 | 0.00 | 71 | 1014.5 |
| 20260901093308 | 60 | 224 | 1.0 | 2.0 | 0.00 | 0.00 | 0.00 | 71 | 1014.5 |
| 20260901092807 | 60 | 213 | 0.0 | 1.0 | 0.00 | 0.00 | 0.00 | 72 | 1014.5 |
| 20260901092309 | 60 | 132 | 0.0 | 1.0 | 0.00 | 0.00 | 0.00 | 72 | 1014.5 |
| 20260901091809 | 60 | 255 | 0.0 | 1.0 | 0.00 | 0.00 | 0.00 | 72 | 1014.5 |
| 20260901091307 | 59 | 205 | 1.0 | 2.0 | 0.00 | 0.00 | 0.00 | 72 | 1014.5 |
| 20260901090808 | 59 | 227 | 0.0 | 1.0 | 0.00 | 0.00 | 0.00 | 72 | 1014.6 |
| 20260901090308 | 59 | 270 | 0.0 | 1.0 | 0.00 | 0.00 | 0.00 | 72 | 1014.5 |
| 20260901085809 | 59 | 223 | 1.0 | 2.0 | 0.00 | 0.00 | 0.00 | 73 | 1014.5 |
| 20260901085308 | 59 | 251 | 0.0 | 1.0 | 0.00 | 0.00 | 0.00 | 73 | 1014.5 |
| 20260901084807 | 59 | 245 | 0.0 | 2.0 | 0.00 | 0.00 | 0.00 | 73 | 1014.5 |
| 20260901084308 | 59 | 226 | 0.0 | 1.0 | 0.00 | 0.00 | 0.00 | 72 | 1014.5 |
| 20260901083808 | 59 | 228 | 0.0 | 1.0 | 0.00 | 0.00 | 0.00 | 72 | 1014.4 |
| 20260901083307 | 60 | 252 | 0.0 | 2.0 | 0.00 | 0.00 | 0.00 | 72 | 1014.4 |
| 20260901082809 | 60 | 254 | 0.0 | 1.0 | 0.00 | 0.00 | 0.00 | 71 | 1014.4 |
| 20260901082308 | 60 | 303 | 0.0 | 1.0 | 0.00 | 0.00 | 0.00 | 70 | 1014.5 |
| 20260901081808 | 60 | 298 | 0.0 | 1.0 | 0.00 | 0.00 | 0.00 | 70 | 1014.5 |
| 20260901081307 | 60 | 269 | 1.0 | 2.0 | 0.00 | 0.00 | 0.00 | 70 | 1014.6 |
| 20260901080809 | 60 | 278 | 2.0 | 3.0 | 0.00 | 0.00 | 0.00 | 70 | 1014.6 |
| 20260901080307 | 60 | 287 | 2.0 | 2.0 | 0.00 | 0.00 | 0.00 | 70 | 1014.6 |
| 20260901075807 | 60 | 291 | 2.0 | 3.0 | 0.00 | 0.00 | 0.00 | 70 | 1014.6 |
| 20260901075308 | 60 | 299 | 0.0 | 1.0 | 0.00 | 0.00 | 0.00 | 70 | 1014.5 |
| 20260901074808 | 60 | 251 | 1.0 | 2.0 | 0.00 | 0.00 | 0.00 | 70 | 1014.5 |
| 20260901074308 | 60 | 303 | 0.0 | 2.0 | 0.00 | 0.00 | 0.00 | 70 | 1014.4 |
| 20260901073808 | 61 | 257 | 1.0 | 2.0 | 0.00 | 0.00 | 0.00 | 70 | 1014.5 |
| 20260901073308 | 61 | 243 | 1.0 | 2.0 | 0.00 | 0.00 | 0.00 | 70 | 1014.6 |
| 20260901072809 | 61 | 245 | 0.0 | 4.0 | 0.00 | 0.00 | 0.00 | 70 | 1014.6 |
| 20260901072309 | 61 | 250 | 1.0 | 2.0 | 0.00 | 0.00 | 0.00 | 70 | 1014.6 |
| 20260901071807 | 61 | 279 | 1.0 | 3.0 | 0.00 | 0.00 | 0.00 | 70 | 1014.6 |
| 20260901071308 | 61 | 249 | 1.0 | 3.0 | 0.00 | 0.00 | 0.00 | 69 | 1014.6 |
| 20260901070807 | 61 | 253 | 1.0 | 3.0 | 0.00 | 0.00 | 0.00 | 69 | 1014.6 |
| 20260901070308 | 61 | 260 | 3.0 | 4.0 | 0.00 | 0.00 | 0.00 | 69 | 1014.6 |
| 20260901065317 | 61 | 284 | 0.0 | 2.0 | 0.00 | 0.00 | 0.00 | 70 | 1014.5 |
| 20260901064808 | 61 | 286 | 1.0 | 3.0 | 0.00 | 0.00 | 0.00 | 69 | 1014.5 |
| 20260901064308 | 61 | 280 | 3.0 | 4.0 | 0.00 | 0.00 | 0.00 | 69 | 1014.6 |
| 20260901063807 | 61 | 278 | 1.0 | 1.0 | 0.00 | 0.00 | 0.00 | 69 | 1014.6 |
| 20260901063307 | 61 | 256 | 2.0 | 3.0 | 0.00 | 0.00 | 0.00 | 69 | 1014.6 |
| 20260901062808 | 61 | 286 | 0.0 | 2.0 | 0.00 | 0.00 | 0.00 | 69 | 1014.7 |
| 20260901062310 | 61 | 205 | 2.0 | 3.0 | 0.00 | 0.00 | 0.00 | 70 | 1014.7 |
| 20260901061808 | 61 | 223 | 2.0 | 2.0 | 0.00 | 0.00 | 0.00 | 70 | 1014.7 |
| 20260901061307 | 61 | 258 | 1.0 | 3.0 | 0.00 | 0.00 | 0.00 | 70 | 1014.7 |
| 20260901060807 | 61 | 271 | 1.0 | 2.0 | 0.00 | 0.00 | 0.00 | 70 | 1014.7 |
| 20260901060308 | 61 | 278 | 3.0 | 4.0 | 0.00 | 0.00 | 0.00 | 70 | 1014.7 |
| 20260901055808 | 61 | 306 | 1.0 | 3.0 | 0.00 | 0.00 | 0.00 | 70 | 1014.8 |
| 20260901055308 | 61 | 279 | 2.0 | 4.0 | 0.00 | 0.00 | 0.00 | 70 | 1014.8 |
| 20260901054807 | 61 | 292 | 3.0 | 6.0 | 0.00 | 0.00 | 0.00 | 70 | 1014.8 |
| 20260901054307 | 61 | 282 | 3.0 | 4.0 | 0.00 | 0.00 | 0.00 | 70 | 1014.8 |
| 20260901053807 | 61 | 291 | 4.0 | 7.0 | 0.00 | 0.00 | 0.00 | 69 | 1014.8 |
| 20260901053307 | 61 | 277 | 2.0 | 3.0 | 0.00 | 0.00 | 0.00 | 70 | 1014.8 |
| 20260901052809 | 61 | 303 | 2.0 | 5.0 | 0.00 | 0.00 | 0.00 | 70 | 1014.8 |
| 20260901052307 | 61 | 294 | 1.0 | 3.0 | 0.00 | 0.00 | 0.00 | 71 | 1014.7 |
| 20260901051808 | 61 | 295 | 2.0 | 4.0 | 0.00 | 0.00 | 0.00 | 71 | 1014.7 |
| 20260901051307 | 61 | 302 | 2.0 | 4.0 | 0.00 | 0.00 | 0.00 | 71 | 1014.7 |
| 20260901050808 | 61 | 294 | 2.0 | 4.0 | 0.00 | 0.00 | 0.00 | 71 | 1014.7 |
| 20260901050308 | 60 | 296 | 3.0 | 4.0 | 0.00 | 0.00 | 0.00 | 72 | 1014.6 |
| 20260901045807 | 60 | 292 | 3.0 | 5.0 | 0.00 | 0.00 | 0.00 | 72 | 1014.5 |
| 20260901045308 | 60 | 282 | 2.0 | 3.0 | 0.00 | 0.00 | 0.00 | 72 | 1014.5 |
| 20260901044808 | 60 | 299 | 4.0 | 6.0 | 0.00 | 0.00 | 0.00 | 72 | 1014.4 |
| 20260901044307 | 60 | 271 | 2.0 | 6.0 | 0.00 | 0.00 | 0.00 | 72 | 1014.4 |
| 20260901043807 | 61 | 300 | 2.0 | 5.0 | 0.00 | 0.00 | 0.00 | 72 | 1014.3 |
| 20260901043307 | 61 | 299 | 3.0 | 6.0 | 0.00 | 0.00 | 0.00 | 72 | 1014.3 |
| 20260901042807 | 61 | 292 | 3.0 | 6.0 | 0.00 | 0.00 | 0.00 | 71 | 1014.2 |
| 20260901042307 | 61 | 308 | 2.0 | 4.0 | 0.00 | 0.00 | 0.00 | 71 | 1014.3 |
| 20260901041808 | 61 | 293 | 4.0 | 6.0 | 0.00 | 0.00 | 0.00 | 71 | 1014.3 |
| 20260901041307 | 61 | 303 | 3.0 | 6.0 | 0.00 | 0.00 | 0.00 | 71 | 1014.2 |
| 20260901040807 | 61 | 272 | 3.0 | 4.0 | 0.00 | 0.00 | 0.00 | 71 | 1014.2 |
| 20260901040308 | 61 | 288 | 2.0 | 4.0 | 0.00 | 0.00 | 0.00 | 71 | 1014.2 |
| 20260901035808 | 61 | 285 | 2.0 | 5.0 | 0.00 | 0.00 | 0.00 | 71 | 1014.2 |
| 20260901035308 | 61 | 304 | 3.0 | 5.0 | 0.00 | 0.00 | 0.00 | 72 | 1014.1 |
| 20260901034807 | 61 | 296 | 5.0 | 8.0 | 0.00 | 0.00 | 0.00 | 72 | 1014.0 |
| 20260901034313 | 61 | 290 | 2.0 | 4.0 | 0.00 | 0.00 | 0.00 | 73 | 1014.0 |
| 20260901033807 | 61 | 288 | 3.0 | 5.0 | 0.00 | 0.00 | 0.00 | 73 | 1013.9 |
| 20260901033307 | 62 | 286 | 5.0 | 9.0 | 0.00 | 0.00 | 0.00 | 73 | 1013.8 |
| 20260901032808 | 62 | 297 | 1.0 | 3.0 | 0.00 | 0.00 | 0.00 | 72 | 1013.8 |
| 20260901032307 | 62 | 294 | 3.0 | 6.0 | 0.00 | 0.00 | 0.00 | 72 | 1013.7 |
| 20260901031808 | 62 | 287 | 7.0 | 9.0 | 0.00 | 0.00 | 0.00 | 71 | 1013.7 |
| 20260901031308 | 62 | 285 | 4.0 | 6.0 | 0.00 | 0.00 | 0.00 | 71 | 1013.6 |
| 20260901030808 | 62 | 301 | 5.0 | 8.0 | 0.00 | 0.00 | 0.00 | 71 | 1013.6 |
| 20260901030308 | 62 | 286 | 3.0 | 6.0 | 0.00 | 0.00 | 0.00 | 70 | 1013.5 |
| 20260901025808 | 62 | 292 | 6.0 | 9.0 | 0.00 | 0.00 | 0.00 | 70 | 1013.4 |
| 20260901025307 | 62 | 280 | 3.0 | 8.0 | 0.00 | 0.00 | 0.00 | 70 | 1013.4 |
| 20260901024808 | 63 | 302 | 3.0 | 7.0 | 0.00 | 0.00 | 0.00 | 70 | 1013.4 |
| 20260901024307 | 63 | 303 | 4.0 | 5.0 | 0.00 | 0.00 | 0.00 | 69 | 1013.4 |
| 20260901023807 | 63 | 292 | 2.0 | 5.0 | 0.00 | 0.00 | 0.00 | 69 | 1013.4 |
| 20260901023307 | 63 | 304 | 4.0 | 8.0 | 0.00 | 0.00 | 0.00 | 69 | 1013.3 |
| 20260901022808 | 63 | 311 | 3.0 | 7.0 | 0.00 | 0.00 | 0.00 | 69 | 1013.4 |
| 20260901022310 | 63 | 315 | 3.0 | 4.0 | 0.00 | 0.00 | 0.00 | 69 | 1013.3 |
| 20260901021808 | 64 | 297 | 4.0 | 7.0 | 0.00 | 0.00 | 0.00 | 68 | 1013.3 |
| 20260901021307 | 64 | 299 | 3.0 | 6.0 | 0.00 | 0.00 | 0.00 | 68 | 1013.3 |
| 20260901020807 | 64 | 297 | 5.0 | 9.0 | 0.00 | 0.00 | 0.00 | 68 | 1013.2 |
| 20260901020307 | 64 | 296 | 6.0 | 9.0 | 0.00 | 0.00 | 0.00 | 68 | 1013.2 |
| 20260901015811 | 65 | 303 | 5.0 | 9.0 | 0.00 | 0.00 | 0.00 | 67 | 1013.2 |
| 20260901015308 | 65 | 297 | 4.0 | 7.0 | 0.00 | 0.00 | 0.00 | 67 | 1013.2 |
| 20260901014808 | 65 | 298 | 5.0 | 8.0 | 0.00 | 0.00 | 0.00 | 66 | 1013.1 |
| 20260901014308 | 66 | 294 | 3.0 | 7.0 | 0.00 | 0.00 | 0.00 | 65 | 1013.1 |
| 20260901013807 | 66 | 295 | 5.0 | 8.0 | 0.00 | 0.00 | 0.00 | 64 | 1013.1 |
| 20260901013307 | 67 | 290 | 4.0 | 8.0 | 0.00 | 0.00 | 0.00 | 63 | 1013.1 |
| 20260901012808 | 67 | 291 | 4.0 | 5.0 | 0.00 | 0.00 | 0.00 | 61 | 1013.1 |
| 20260901012314 | 67 | 294 | 2.0 | 3.0 | 0.00 | 0.00 | 0.00 | 62 | 1013.2 |
| 20260901011808 | 68 | 300 | 4.0 | 9.0 | 0.00 | 0.00 | 0.00 | 61 | 1013.2 |
| 20260901011308 | 68 | 295 | 3.0 | 6.0 | 0.00 | 0.00 | 0.00 | 60 | 1013.2 |
| 20260901010808 | 69 | 340 | 2.0 | 4.0 | 0.00 | 0.00 | 0.00 | 59 | 1013.2 |
| 20260901010307 | 69 | 298 | 2.0 | 4.0 | 0.00 | 0.00 | 0.00 | 60 | 1013.2 |
| 20260901005809 | 69 | 276 | 2.0 | 4.0 | 0.00 | 0.00 | 0.00 | 60 | 1013.3 |
| 20260901005307 | 69 | 328 | 3.0 | 5.0 | 0.00 | 0.00 | 0.00 | 59 | 1013.2 |
| 20260901004810 | 69 | 333 | 5.0 | 9.0 | 0.00 | 0.00 | 0.00 | 59 | 1013.1 |
| 20260901004307 | 69 | 336 | 4.0 | 7.0 | 0.00 | 0.00 | 0.00 | 60 | 1013.1 |
| 20260901003807 | 69 | 337 | 5.0 | 7.0 | 0.00 | 0.00 | 0.00 | 59 | 1013.1 |
| 20260901003308 | 69 | 293 | 3.0 | 5.0 | 0.00 | 0.00 | 0.00 | 59 | 1013.0 |
| 20260901002808 | 69 | 354 | 5.0 | 8.0 | 0.00 | 0.00 | 0.00 | 59 | 1013.0 |
| 20260901002307 | 69 | 332 | 2.0 | 6.0 | 0.00 | 0.00 | 0.00 | 60 | 1013.0 |
| 20260901001807 | 70 | 8 | 5.0 | 9.0 | 0.00 | 0.00 | 0.00 | 58 | 1013.0 |
| 20260901001308 | 70 | 327 | 5.0 | 9.0 | 0.00 | 0.00 | 0.00 | 57 | 1012.9 |
| 20260901000807 | 69 | 281 | 3.0 | 6.0 | 0.00 | 0.00 | 0.00 | 57 | 1013.0 |
| 20260901000313 | 69 | 336 | 4.0 | 7.0 | 0.00 | 0.00 | 0.00 | 58 | 1013.0 |
| 20260831235808 | 69 | 338 | 5.0 | 7.0 | 0.00 | 0.00 | 0.00 | 58 | 1013.2 |
| 20260831235310 | 69 | 351 | 4.0 | 7.0 | 0.00 | 0.00 | 0.00 | 59 | 1013.2 |
| 20260831234807 | 69 | 358 | 4.0 | 8.0 | 0.00 | 0.00 | 0.00 | 59 | 1013.0 |
| 20260831234310 | 69 | 5 | 4.0 | 8.0 | 0.00 | 0.00 | 0.00 | 60 | 1013.1 |
| 20260831233808 | 70 | 353 | 7.0 | 11.0 | 0.00 | 0.00 | 0.00 | 58 | 1013.1 |
| 20260831233308 | 70 | 321 | 6.0 | 12.0 | 0.00 | 0.00 | 0.00 | 59 | 1013.2 |
| 20260831232344 | 70 | 319 | 4.0 | 9.0 | 0.00 | 0.00 | 0.00 | 58 | 1013.2 |
| 20260831231808 | 70 | 327 | 4.0 | 6.0 | 0.00 | 0.00 | 0.00 | 59 | 1013.2 |
| 20260831231307 | 71 | 9 | 8.0 | 11.0 | 0.00 | 0.00 | 0.00 | 58 | 1013.2 |
| 20260831230807 | 72 | 349 | 6.0 | 9.0 | 0.00 | 0.00 | 0.00 | 57 | 1013.1 |
| 20260831230307 | 73 | 10 | 6.0 | 12.0 | 0.00 | 0.00 | 0.00 | 55 | 1013.1 |
| 20260831225807 | 72 | 19 | 2.0 | 3.0 | 0.00 | 0.00 | 0.00 | 55 | 1013.2 |
| 20260831225307 | 71 | 334 | 4.0 | 6.0 | 0.00 | 0.00 | 0.00 | 57 | 1013.2 |
| 20260831224807 | 71 | 328 | 5.0 | 8.0 | 0.00 | 0.00 | 0.00 | 57 | 1013.2 |
| 20260831224307 | 71 | 13 | 8.0 | 12.0 | 0.00 | 0.00 | 0.00 | 56 | 1013.3 |
| 20260831223808 | 71 | 5 | 6.0 | 9.0 | 0.00 | 0.00 | 0.00 | 58 | 1013.3 |
| 20260831223307 | 71 | 335 | 6.0 | 12.0 | 0.00 | 0.00 | 0.00 | 57 | 1013.2 |
| 20260831222807 | 71 | 7 | 4.0 | 8.0 | 0.00 | 0.00 | 0.00 | 58 | 1013.3 |
| 20260831222306 | 71 | 333 | 7.0 | 9.0 | 0.00 | 0.00 | 0.00 | 58 | 1013.4 |
| 20260831221808 | 71 | 340 | 6.0 | 11.0 | 0.00 | 0.00 | 0.00 | 57 | 1013.5 |
| 20260831221309 | 71 | 333 | 5.0 | 7.0 | 0.00 | 0.00 | 0.00 | 57 | 1013.5 |
| 20260831220808 | 72 | 293 | 4.0 | 6.0 | 0.00 | 0.00 | 0.00 | 56 | 1013.6 |
| 20260831220307 | 71 | 287 | 3.0 | 7.0 | 0.00 | 0.00 | 0.00 | 57 | 1013.6 |
| 20260831215807 | 71 | 276 | 5.0 | 9.0 | 0.00 | 0.00 | 0.00 | 57 | 1013.7 |
| 20260831215308 | 72 | 209 | 4.0 | 6.0 | 0.00 | 0.00 | 0.00 | 57 | 1013.8 |
| 20260831214807 | 72 | 278 | 2.0 | 4.0 | 0.00 | 0.00 | 0.00 | 57 | 1013.8 |
| 20260831214307 | 71 | 327 | 3.0 | 5.0 | 0.00 | 0.00 | 0.00 | 57 | 1013.8 |
| 20260831213807 | 71 | 259 | 2.0 | 5.0 | 0.00 | 0.00 | 0.00 | 58 | 1013.9 |
| 20260831213307 | 72 | 243 | 2.0 | 4.0 | 0.00 | 0.00 | 0.00 | 56 | 1014.0 |
| 20260831212807 | 71 | 300 | 3.0 | 6.0 | 0.00 | 0.00 | 0.00 | 57 | 1014.0 |
| 20260831212307 | 71 | 312 | 4.0 | 8.0 | 0.00 | 0.00 | 0.00 | 58 | 1014.2 |
| 20260831211808 | 71 | 258 | 3.0 | 5.0 | 0.00 | 0.00 | 0.00 | 58 | 1014.2 |
| 20260831211310 | 71 | 308 | 5.0 | 9.0 | 0.00 | 0.00 | 0.00 | 58 | 1014.2 |
| 20260831210807 | 71 | 310 | 4.0 | 6.0 | 0.00 | 0.00 | 0.00 | 58 | 1014.3 |
| 20260831210308 | 71 | 309 | 2.0 | 3.0 | 0.00 | 0.00 | 0.00 | 58 | 1014.3 |
| 20260831205807 | 71 | 220 | 3.0 | 4.0 | 0.00 | 0.00 | 0.00 | 58 | 1014.3 |
| 20260831205307 | 71 | 301 | 2.0 | 6.0 | 0.00 | 0.00 | 0.00 | 58 | 1014.4 |
| 20260831204808 | 70 | 360 | 3.0 | 5.0 | 0.00 | 0.00 | 0.00 | 59 | 1014.4 |
| 20260831204308 | 69 | 273 | 3.0 | 5.0 | 0.00 | 0.00 | 0.00 | 60 | 1014.4 |
| 20260831203807 | 70 | 229 | 4.0 | 8.0 | 0.00 | 0.00 | 0.00 | 59 | 1014.4 |
| 20260831203307 | 69 | 287 | 2.0 | 4.0 | 0.00 | 0.00 | 0.00 | 62 | 1014.5 |
| 20260831202808 | 69 | 300 | 1.0 | 2.0 | 0.00 | 0.00 | 0.00 | 62 | 1014.5 |
| 20260831202307 | 70 | 7 | 5.0 | 8.0 | 0.00 | 0.00 | 0.00 | 60 | 1014.4 |
| 20260831201808 | 70 | 2 | 5.0 | 9.0 | 0.00 | 0.00 | 0.00 | 59 | 1014.5 |
| 20260831201310 | 70 | 7 | 5.0 | 7.0 | 0.00 | 0.00 | 0.00 | 59 | 1014.5 |
| 20260831200808 | 70 | 334 | 2.0 | 6.0 | 0.00 | 0.00 | 0.00 | 60 | 1014.4 |
| 20260831200308 | 70 | 283 | 3.0 | 6.0 | 0.00 | 0.00 | 0.00 | 59 | 1014.5 |
| 20260831195808 | 69 | 236 | 2.0 | 4.0 | 0.00 | 0.00 | 0.00 | 60 | 1014.5 |
| 20260831195308 | 68 | 287 | 2.0 | 4.0 | 0.00 | 0.00 | 0.00 | 61 | 1014.6 |
| 20260831194808 | 68 | 299 | 4.0 | 8.0 | 0.00 | 0.00 | 0.00 | 61 | 1014.7 |
| 20260831194308 | 68 | 40 | 4.0 | 7.0 | 0.00 | 0.00 | 0.00 | 62 | 1014.6 |
| 20260831193807 | 69 | 194 | 3.0 | 4.0 | 0.00 | 0.00 | 0.00 | 61 | 1014.7 |
| 20260831193308 | 68 | 271 | 3.0 | 5.0 | 0.00 | 0.00 | 0.00 | 62 | 1014.8 |
| 20260831192807 | 68 | 326 | 2.0 | 4.0 | 0.00 | 0.00 | 0.00 | 62 | 1014.9 |
| 20260831192308 | 68 | 82 | 1.0 | 3.0 | 0.00 | 0.00 | 0.00 | 61 | 1014.8 |
| 20260831191807 | 68 | 286 | 4.0 | 9.0 | 0.00 | 0.00 | 0.00 | 62 | 1014.9 |
| 20260831191307 | 68 | 293 | 4.0 | 5.0 | 0.00 | 0.00 | 0.00 | 62 | 1014.9 |
| 20260831190808 | 68 | 336 | 4.0 | 7.0 | 0.00 | 0.00 | 0.00 | 62 | 1014.9 |
| 20260831190308 | 67 | 25 | 1.0 | 2.0 | 0.00 | 0.00 | 0.00 | 63 | 1014.9 |
| 20260831185807 | 67 | 343 | 3.0 | 5.0 | 0.00 | 0.00 | 0.00 | 64 | 1014.9 |
| 20260831185307 | 67 | 303 | 2.0 | 4.0 | 0.00 | 0.00 | 0.00 | 64 | 1014.9 |
| 20260831184808 | 67 | 276 | 4.0 | 8.0 | 0.00 | 0.00 | 0.00 | 64 | 1015.0 |
| 20260831184308 | 66 | 338 | 3.0 | 6.0 | 0.00 | 0.00 | 0.00 | 67 | 1015.0 |
| 20260831183809 | 66 | 297 | 6.0 | 11.0 | 0.00 | 0.00 | 0.00 | 66 | 1015.1 |
| 20260831183307 | 65 | 251 | 3.0 | 7.0 | 0.00 | 0.00 | 0.00 | 66 | 1015.1 |
| 20260831182807 | 65 | 305 | 7.0 | 11.0 | 0.00 | 0.00 | 0.00 | 68 | 1015.1 |
| 20260831182308 | 65 | 275 | 4.0 | 7.0 | 0.00 | 0.00 | 0.00 | 67 | 1015.2 |
| 20260831181808 | 65 | 271 | 3.0 | 4.0 | 0.00 | 0.00 | 0.00 | 66 | 1015.2 |
| 20260831181307 | 65 | 239 | 3.0 | 4.0 | 0.00 | 0.00 | 0.00 | 66 | 1015.1 |
| 20260831180807 | 65 | 297 | 6.0 | 10.0 | 0.00 | 0.00 | 0.00 | 68 | 1015.1 |
| 20260831180308 | 65 | 289 | 6.0 | 10.0 | 0.00 | 0.00 | 0.00 | 67 | 1015.2 |
| 20260831175808 | 64 | 294 | 5.0 | 9.0 | 0.00 | 0.00 | 0.00 | 69 | 1015.2 |
| 20260831175308 | 64 | 295 | 3.0 | 4.0 | 0.00 | 0.00 | 0.00 | 70 | 1015.2 |
| 20260831174807 | 64 | 282 | 4.0 | 6.0 | 0.00 | 0.00 | 0.00 | 69 | 1015.1 |
| 20260831174307 | 64 | 292 | 2.0 | 3.0 | 0.00 | 0.00 | 0.00 | 69 | 1015.1 |
| 20260831173809 | 64 | 290 | 1.0 | 3.0 | 0.00 | 0.00 | 0.00 | 69 | 1015.2 |
| 20260831173307 | 63 | 285 | 3.0 | 6.0 | 0.00 | 0.00 | 0.00 | 70 | 1015.2 |
| 20260831172812 | 63 | 274 | 4.0 | 6.0 | 0.00 | 0.00 | 0.00 | 71 | 1015.2 |
| 20260831172310 | 63 | 261 | 1.0 | 3.0 | 0.00 | 0.00 | 0.00 | 71 | 1015.2 |
| 20260831171808 | 63 | 288 | 1.0 | 2.0 | 0.00 | 0.00 | 0.00 | 71 | 1015.2 |
| 20260831171307 | 63 | 284 | 2.0 | 3.0 | 0.00 | 0.00 | 0.00 | 72 | 1015.2 |
| 20260831170807 | 62 | 266 | 2.0 | 4.0 | 0.00 | 0.00 | 0.00 | 72 | 1015.2 |
| 20260831170316 | 62 | 275 | 2.0 | 4.0 | 0.00 | 0.00 | 0.00 | 73 | 1015.1 |
| 20260831165808 | 62 | 279 | 4.0 | 6.0 | 0.00 | 0.00 | 0.00 | 73 | 1015.0 |
| 20260831165308 | 62 | 280 | 2.0 | 3.0 | 0.00 | 0.00 | 0.00 | 72 | 1014.9 |
| 20260831164808 | 62 | 268 | 2.0 | 5.0 | 0.00 | 0.00 | 0.00 | 73 | 1014.9 |
| 20260831164308 | 61 | 268 | 3.0 | 5.0 | 0.00 | 0.00 | 0.00 | 72 | 1014.8 |
| 20260831163807 | 61 | 260 | 4.0 | 5.0 | 0.00 | 0.00 | 0.00 | 73 | 1014.8 |
| 20260831163308 | 61 | 304 | 4.0 | 6.0 | 0.00 | 0.00 | 0.00 | 73 | 1014.8 |
| 20260831162807 | 61 | 303 | 4.0 | 5.0 | 0.00 | 0.00 | 0.00 | 74 | 1014.7 |
| 20260831162310 | 61 | 296 | 2.0 | 4.0 | 0.00 | 0.00 | 0.00 | 73 | 1014.7 |